Theta_e
316 314 316 318 319 319 320 319 319 318 317 317 319 319 319 320 317 317 317 316 316 319 322 324 323 322 320 320 319 318 317 317 316 316 316 316 316 316 316 316 317 317 317 317
319 316 315 318 318 315 319 319 317 317 317 316 317 316 314 316 316 316 317 316 317 316 318 321 323 322 321 319 318 318 318 318 317 317 316 316 316 316 316 316 317 318 318 318
318 319 319 316 314 318 316 316 317 319 317 316 317 317 317 317 318 317 317 317 317 317 316 319 321 322 321 320 319 318 318 318 318 317 317 316 316 316 317 318 319 319 319 319
317 316 319 313 314 316 315 316 316 315 314 315 315 317 317 317 318 318 317 317 317 317 317 317 318 321 323 321 319 318 319 319 318 318 318 318 318 318 319 320 320 319 319 318
319 318 315 312 311 312 316 314 318 318 319 318 317 315 315 313 313 316 317 315 315 314 314 315 317 319 321 322 321 320 320 319 319 319 319 318 318 318 319 318 316 316 315 314
315 317 317 312 312 316 314 317 317 318 320 320 318 320 318 315 313 313 312 312 312 311 311 313 318 319 320 321 322 322 321 321 320 320 318 318 318 318 317 315 313 311 308 307
314 315 315 313 313 317 317 316 315 315 317 319 319 318 316 314 315 314 314 318 318 316 316 317 319 321 322 322 321 321 318 317 318 319 318 316 315 314 311 308 306 303 301 299
313 315 315 311 316 317 315 316 314 314 314 318 318 316 315 314 314 315 316 318 317 316 314 316 319 320 320 319 315 317 317 316 316 314 313 311 310 305 303 301 298 294 293 291
315 315 312 312 313 311 314 315 314 314 313 314 317 317 315 315 314 314 315 316 314 313 311 312 315 317 314 312 315 315 313 310 309 308 306 305 304 300 297 296 293 290 289 287
311 311 311 309 309 311 311 311 312 312 313 314 317 317 317 315 315 314 314 315 314 312 311 310 311 312 311 311 312 309 304 302 302 302 300 299 297 296 294 292 290 288 287 285
310 309 310 310 310 309 308 309 309 309 312 315 315 315 313 313 312 313 312 312 311 310 308 307 306 306 307 308 308 304 300 298 296 296 295 293 293 292 292 291 291 289 287 285
310 307 307 308 308 306 305 307 305 302 301 301 301 304 306 302 302 304 306 307 306 304 302 299 300 300 302 303 306 301 296 294 293 292 290 289 288 286 288 290 290 290 288 286
306 305 305 305 306 302 301 300 300 297 295 295 295 295 294 293 292 292 293 293 294 295 293 292 291 294 294 296 298 296 292 290 289 288 287 286 285 284 283 283 285 286 286 285
301 301 306 305 305 299 297 296 296 293 291 290 290 290 290 290 290 289 289 288 289 288 289 289 289 290 292 292 291 288 286 286 285 284 284 283 283 283 282 282 282 281 281 281
295 296 298 301 300 296 294 293 293 290 289 288 287 287 288 287 286 286 286 286 285 285 286 286 286 285 287 288 289 289 288 285 284 284 284 284 283 283 282 282 282 281 280 280
294 295 297 298 296 293 292 290 290 288 288 287 286 285 284 283 282 282 281 281 282 282 282 282 282 283 284 284 283 283 283 283 283 283 282 282 283 283 282 282 281 281 280 278
292 294 292 292 293 290 289 288 287 286 285 285 284 283 282 281 280 279 279 278 278 278 279 279 279 280 281 281 281 280 280 280 280 280 280 280 280 280 280 279 278 277 276 275
288 288 288 288 288 288 286 285 284 283 282 281 279 279 278 278 278 278 277 277 277 276 276 277 278 278 279 279 279 278 278 277 277 277 277 277 277 277 277 276 276 275 274 273
285 285 285 285 284 284 283 282 281 280 279 278 277 276 276 276 276 276 276 276 276 275 274 275 277 276 276 276 277 276 275 275 275 274 274 274 274 274 273 273 273 272 272 271
282 282 281 281 280 280 280 279 278 277 277 276 275 275 275 275 275 274 273 273 272 273 273 273 274 274 274 274 274 273 273 273 272 271 271 271 271 271 270 270 270 270 269 269
280 279 279 278 278 278 277 276 276 275 274 274 274 273 273 273 273 273 273 272 271 271 272 272 272 272 272 272 272 271 270 270 269 269 269 268 268 267 267 267 266 266 266 266
279 279 278 277 277 277 276 275 275 274 274 274 274 273 273 272 271 270 269 270 269 270 269 269 269 270 270 269 269 268 267 267 267 266 266 266 265 265 264 264 264 263 263 263
279 278 277 277 276 276 275 274 274 273 273 272 272 271 270 270 270 270 269 267 268 267 267 267 268 268 267 267 266 266 265 265 264 264 263 263 263 262 262 262 261 261 261 261
278 277 277 276 275 275 275 274 273 273 272 271 271 270 270 269 268 267 267 267 267 266 266 266 266 266 266 265 265 264 264 263 263 263 262 262 261 261 261 260 260 259 260 260
275 275 275 275 275 274 273 273 272 271 270 269 269 268 267 267 267 266 265 265 265 265 264 264 264 264 264 264 263 263 262 262 262 261 261 261 260 260 259 259 259 259 259 259
274 273 272 271 272 272 271 271 271 270 269 268 266 265 266 266 266 265 264 264 264 263 263 263 263 263 262 262 262 261 261 261 261 260 260 260 259 259 259 259 259 259 259 258
272 272 271 270 269 268 268 268 268 267 266 266 265 264 265 265 264 264 263 263 262 262 262 262 262 262 261 261 261 261 261 260 260 260 259 259 259 259 258 258 258 258 258 258
Wind_Speed
6 11 7 8 7 10 10 10 10 6 13 9 13 13 13 10 10 10 9 8 9 10 12 13 20 25 27 28 31 34 34 34 38 37 34 32 33 33 34 34 33 32 35 38
5 10 11 8 10 17 15 10 13 12 14 12 15 10 7 13 13 13 11 11 11 11 11 14 19 24 25 28 32 33 33 36 33 32 32 34 34 33 33 35 35 34 34 36
3 5 7 6 9 8 2 5 4 6 9 10 13 12 10 13 12 12 11 11 11 12 12 12 21 24 28 30 28 32 33 31 31 31 31 32 32 31 32 32 29 32 32 31
1 2 7 3 4 5 6 9 9 7 9 12 16 16 16 9 9 9 11 13 11 11 10 15 18 25 24 23 29 29 29 28 28 29 29 27 27 29 28 28 30 32 34 35
3 6 8 9 7 4 6 8 7 4 10 13 14 11 12 7 7 12 10 8 9 14 16 13 16 19 21 21 24 25 27 27 25 23 22 21 22 23 24 25 25 28 30 29
3 3 5 3 2 2 1 6 5 5 7 10 14 8 7 14 10 11 12 10 11 14 13 14 13 16 20 23 24 25 23 20 19 21 24 23 21 21 23 23 23 21 19 19
4 4 6 9 8 3 2 5 7 3 7 3 3 4 8 10 10 10 10 8 11 10 8 8 9 15 17 16 17 12 16 20 20 19 18 19 19 20 19 18 17 17 17 16
5 4 8 0 2 1 6 4 7 12 9 6 7 10 5 7 9 10 11 10 9 4 6 1 8 12 13 12 13 18 16 17 18 18 18 18 18 19 20 21 23 22 23 22
8 6 2 3 4 8 7 12 13 16 20 16 14 12 9 6 6 7 9 6 8 4 4 1 6 13 16 16 19 19 20 22 21 18 16 15 18 19 20 21 23 21 20 19
0 3 7 5 3 11 13 14 16 16 19 18 16 14 13 8 7 8 7 8 7 5 5 6 5 9 14 20 23 23 19 19 22 23 21 17 16 16 20 21 20 20 20 21
5 7 11 5 11 15 17 14 17 20 15 13 11 12 8 8 6 7 6 10 7 9 10 10 8 7 13 20 22 27 20 20 21 23 22 23 19 16 16 14 18 21 20 24
5 2 3 8 13 13 14 14 15 15 15 13 13 11 12 10 10 10 9 15 10 12 17 10 17 15 7 12 20 26 21 17 19 21 20 23 27 28 19 15 16 17 22 24
1 7 7 7 8 11 10 13 12 11 12 14 12 13 12 10 13 15 19 21 18 12 10 16 18 18 12 8 17 20 21 21 20 18 19 18 19 22 27 29 26 20 20 21
6 8 3 2 5 9 9 11 9 8 15 13 12 14 12 12 16 18 18 17 18 19 17 15 24 22 14 12 21 26 26 26 22 23 23 24 22 22 22 22 23 23 24 24
12 10 9 10 5 8 7 10 11 12 13 12 17 14 13 15 14 16 17 19 22 24 23 26 29 25 20 19 25 29 29 27 26 27 27 26 25 24 22 21 19 19 18 18
13 11 8 7 8 8 8 10 8 8 10 10 10 14 16 19 21 23 24 25 26 21 22 25 26 23 24 28 31 31 31 29 30 28 24 22 22 20 18 17 16 15 14 13
10 9 11 9 8 6 7 6 6 7 9 9 11 14 19 21 25 26 26 28 30 30 27 27 27 29 31 32 32 30 32 30 28 29 25 20 20 20 18 18 17 16 15 11
8 7 7 6 6 6 7 8 9 11 10 14 17 20 21 19 16 21 22 25 32 36 33 30 31 33 33 32 32 30 30 26 25 25 23 21 21 19 19 18 17 16 14 13
11 9 8 9 10 9 9 9 15 16 16 18 22 22 23 23 22 23 25 30 26 24 24 29 34 34 32 30 29 28 27 26 24 24 22 22 21 19 18 16 15 14 12 11
11 13 14 16 18 16 15 17 19 20 19 22 25 26 24 23 24 27 29 31 26 19 24 29 32 31 28 28 27 26 25 23 22 22 21 20 18 18 16 16 14 13 11 10
12 15 16 18 18 20 21 20 22 22 21 24 26 24 24 24 25 23 25 21 23 24 26 28 28 27 26 25 26 26 24 23 21 18 18 18 17 15 14 13 12 10 9 8
13 13 15 17 19 21 22 22 23 23 24 25 25 23 24 24 26 28 27 21 19 25 24 24 24 23 23 24 24 24 22 20 18 17 17 15 14 13 12 11 10 10 9 8
16 16 17 17 18 21 23 24 24 25 25 25 24 23 23 21 18 16 15 18 19 22 22 23 21 21 23 25 24 22 21 20 19 17 15 14 12 11 10 9 9 7 7 6
16 16 17 17 19 21 19 20 22 23 24 24 23 20 18 19 21 19 18 20 21 22 22 20 19 19 21 22 22 21 20 18 17 14 13 12 11 10 9 8 7 6 6 7
15 16 16 15 16 15 16 15 17 17 18 19 19 19 18 16 17 13 16 18 17 18 19 17 17 18 19 19 18 17 16 14 12 11 10 10 9 8 8 8 8 9 9 9
14 14 14 16 14 12 12 12 14 13 14 17 17 17 19 19 19 18 17 16 16 15 16 15 15 15 15 15 14 13 12 11 10 9 8 8 8 8 9 10 10 9 10 10
14 13 13 14 15 13 12 12 13 12 12 14 16 14 17 16 16 15 14 14 14 14 14 13 13 13 12 11 10 9 8 7 7 6 6 8 9 10 10 9 10 10 10 10
Wind_Direction
266 293 281 268 283 302 280 259 250 255 257 248 248 248 245 264 277 279 273 235 226 216 214 210 203 201 201 203 201 199 200 206 212 214 215 216 217 219 216 221 223 226 234 241
227 225 248 267 281 289 266 261 267 264 266 249 256 265 262 266 269 261 251 255 254 217 218 209 202 202 201 197 197 198 204 210 211 212 210 210 213 214 214 218 220 224 228 232
229 226 242 270 245 221 232 228 235 296 305 288 281 271 252 257 261 260 261 248 242 248 212 212 209 204 200 198 192 197 205 209 210 209 212 211 210 212 214 215 216 220 223 223
216 287 235 258 247 215 239 263 245 259 312 304 282 271 277 256 251 251 251 264 255 241 248 230 217 203 207 197 189 196 205 208 208 208 212 213 211 210 211 212 215 221 229 234
224 216 303 293 264 218 207 289 21 356 358 346 323 277 272 259 273 263 272 266 272 274 255 251 221 207 193 196 193 196 203 203 205 205 211 201 201 204 212 217 221 223 227 225
199 203 237 250 125 19 53 263 8 343 314 325 1 34 335 329 323 310 305 297 288 280 267 244 225 191 191 196 198 200 199 200 191 184 194 200 206 213 220 217 212 211 210 215
231 260 276 259 291 336 192 319 304 248 277 282 339 311 297 330 342 322 302 311 313 308 284 262 193 180 186 184 192 192 163 164 175 186 195 198 195 201 199 195 189 179 174 170
211 241 267 109 136 345 334 281 271 308 300 287 285 271 285 341 354 344 350 348 347 347 355 288 166 166 157 153 143 149 157 161 165 177 184 183 184 176 175 171 158 148 144 136
197 206 303 17 15 303 284 290 305 308 302 299 298 291 295 283 328 344 1 6 11 28 82 79 154 147 128 134 150 152 159 149 151 151 155 166 167 163 154 160 146 135 128 121
320 252 263 288 289 15 337 318 312 306 289 291 292 298 309 305 320 341 30 21 24 28 69 69 76 117 130 144 153 142 124 126 133 137 134 141 147 156 153 149 137 136 132 125
262 289 326 297 11 358 339 337 343 336 319 313 322 314 331 315 8 2 26 50 43 58 62 48 50 99 141 145 148 124 130 130 127 128 134 127 119 131 143 148 158 148 145 142
282 19 310 305 326 348 341 341 349 354 357 11 23 2 354 32 21 20 358 67 44 73 72 42 72 47 73 136 147 138 127 120 122 125 124 116 110 91 92 119 149 156 155 153
259 320 293 290 303 8 342 344 351 12 16 1 18 38 25 41 30 37 37 34 36 33 79 82 67 69 46 107 136 126 111 105 105 104 99 100 101 103 102 88 91 106 120 123
5 348 258 11 328 355 352 358 1 23 47 23 20 41 54 53 47 49 47 47 52 51 45 56 75 67 73 99 103 89 89 98 101 98 97 98 98 99 103 101 99 95 99 105
352 334 303 297 357 5 357 25 14 22 35 29 34 40 40 71 60 49 51 61 62 56 48 53 55 47 75 86 96 109 103 95 94 96 101 106 106 101 100 99 102 107 104 95
322 325 0 8 1 10 9 30 33 34 45 45 50 60 62 67 74 66 58 56 63 52 43 53 54 56 71 79 80 79 81 90 94 90 87 88 90 92 93 94 98 98 98 103
338 346 349 357 350 22 30 35 48 55 66 69 69 77 78 74 67 61 60 60 63 63 53 51 56 72 78 81 81 81 83 80 83 86 83 83 86 86 90 93 92 88 84 85
344 7 10 14 359 37 51 54 63 67 72 79 80 76 72 70 74 69 64 66 65 58 54 58 67 74 77 81 83 82 82 80 78 79 82 80 80 84 85 87 87 90 87 77
23 30 34 44 48 58 59 64 71 74 77 79 76 69 66 61 61 63 65 63 55 54 47 64 78 76 70 77 80 78 79 80 79 77 82 81 80 79 80 82 84 84 83 79
44 52 59 61 60 66 69 67 75 72 73 80 80 74 69 62 65 66 64 61 54 53 60 71 76 75 76 82 83 78 77 78 80 79 79 79 77 78 79 79 80 77 76 75
56 60 62 66 66 65 68 71 76 73 72 73 76 74 72 64 60 62 61 58 43 59 66 72 72 75 79 81 82 83 81 80 78 79 80 80 79 77 75 75 72 69 69 69
64 63 63 67 69 69 67 72 75 75 73 72 70 72 74 70 69 67 62 65 60 68 64 64 69 77 82 82 82 81 80 80 78 78 76 76 77 76 72 69 66 62 62 60
69 68 70 70 74 78 73 71 72 74 72 70 72 73 72 69 68 73 67 54 66 69 68 71 74 78 81 82 82 83 82 80 79 80 79 79 77 76 73 67 62 53 42 28
69 70 72 73 76 74 70 67 73 74 77 75 72 77 85 86 76 75 80 79 78 77 75 73 73 75 78 79 80 80 79 80 80 81 80 79 76 69 64 55 40 23 7 356
67 67 66 68 71 71 77 77 76 74 75 75 74 73 75 77 88 82 80 78 74 73 72 68 70 73 76 77 77 76 76 76 79 81 77 70 62 50 34 14 358 347 342 340
69 70 67 63 65 70 76 82 84 83 88 83 75 79 85 86 86 82 76 72 69 69 73 75 73 74 73 70 70 69 68 70 68 64 58 50 33 10 356 351 349 347 344 342
66 69 70 66 58 64 76 83 88 82 86 94 91 82 85 84 81 78 73 68 67 71 77 77 71 65 59 53 49 49 50 48 46 42 27 8 356 350 348 348 345 342 341 340